Location: Cahas Mountain Overlook
(37.0833°N, 80.1000°W)
Time: 19:00:27
(UTC-04:00)

SR - Pass Details

Date: 17 February 2026
Orbit: 572 x 849 km, 66.7° (Epoch: 12 March)

Event Time Altitude Azimuth Distance (km) Brightness Sun altitude
Rises 05:20:16 0° 229° (SW) 2,762 - -21.9°
Reaches altitude 10° 05:22:38 10° 239° (WSW) 1,873 - -21.4°
Maximum altitude 05:26:24 32° 304° (NW) 999 - -20.6°
Exits shadow 05:27:32 28° 335° (NNW) 1,113 ? -20.4°
Drops below altitude 10° 05:30:20 10° 9° (N) 1,947 ? -19.9°
Sets 05:32:50 0° 19° (NNE) 2,891 ? -19.4°
